Time,TemperatureF,DewpointF,PressureIn,WindDirection,WindDirectionDegrees,WindSpeedMPH,WindSpeedGustMPH,Humidity,HourlyPrecipIn,Conditions,Clouds,dailyrainin,SolarRadiationWatts/m^2,SoftwareType,DateUTC
2013-08-20 00:03:00,63.0,63.0,-100.00,South,191,2.0,7.0,100,0.00,,,0.00,0.000000,,2013-08-20 04:03:00,
2013-08-20 00:43:00,63.0,63.0,-100.00,SSW,199,4.0,6.0,100,0.00,,,0.00,0.000000,,2013-08-20 04:43:00,
2013-08-20 00:54:00,63.0,63.0,-100.00,SSW,199,4.0,6.0,100,0.00,,,0.00,0.000000,,2013-08-20 04:54:00,
2013-08-20 01:02:00,63.0,63.0,-100.00,SSW,199,4.0,6.0,100,0.00,,,0.00,0.000000,,2013-08-20 05:02:00,
2013-08-20 01:43:00,63.0,63.0,-100.00,SSW,200,3.0,6.0,100,0.00,,,0.00,0.000000,,2013-08-20 05:43:00,
2013-08-20 01:52:00,63.0,63.0,-100.00,SSW,200,3.0,6.0,100,0.00,,,0.00,0.000000,,2013-08-20 05:52:00,
2013-08-20 02:02:00,63.0,63.0,-100.00,SSW,200,3.0,6.0,100,0.00,,,0.00,0.000000,,2013-08-20 06:02:00,
2013-08-20 02:42:00,63.0,63.0,-100.00,South,191,2.0,6.0,100,0.00,,,0.00,0.000000,,2013-08-20 06:42:00,
2013-08-20 02:52:00,63.0,63.0,-100.00,South,191,2.0,6.0,100,0.00,,,0.00,0.000000,,2013-08-20 06:52:00,
2013-08-20 03:01:00,63.0,63.0,-100.00,South,191,2.0,6.0,100,0.00,,,0.00,0.000000,,2013-08-20 07:01:00,
2013-08-20 03:42:00,62.0,62.0,-100.00,South,180,2.0,4.0,100,0.00,,,0.00,0.000000,,2013-08-20 07:42:00,
2013-08-20 03:52:00,62.0,62.0,-100.00,South,180,2.0,4.0,100,0.00,,,0.00,0.000000,,2013-08-20 07:52:00,
2013-08-20 04:02:00,62.0,62.0,-100.00,South,180,2.0,4.0,100,0.00,,,0.00,0.000000,,2013-08-20 08:02:00,
2013-08-20 04:42:00,62.0,62.0,-100.00,SSE,152,1.0,3.0,100,0.00,,,0.00,0.000000,,2013-08-20 08:42:00,
2013-08-20 04:52:00,62.0,62.0,-100.00,SSE,152,1.0,3.0,100,0.00,,,0.00,0.000000,,2013-08-20 08:52:00,
2013-08-20 05:01:00,62.0,62.0,-100.00,SSE,152,1.0,3.0,100,0.00,,,0.00,0.000000,,2013-08-20 09:01:00,
2013-08-20 05:42:00,63.0,63.0,-100.00,SE,125,1.0,5.0,100,0.00,,,0.00,0.000000,,2013-08-20 09:42:00,
2013-08-20 05:53:00,63.0,63.0,-100.00,SE,125,1.0,5.0,100,0.00,,,0.00,0.000000,,2013-08-20 09:53:00,
2013-08-20 06:04:00,63.0,63.0,-100.00,SE,125,1.0,5.0,100,0.00,,,0.00,0.000000,,2013-08-20 10:04:00,
2013-08-20 06:43:00,62.0,62.0,-100.00,NE,42,2.0,4.0,100,0.00,,,0.00,0.000000,,2013-08-20 10:43:00,
2013-08-20 06:52:00,62.0,62.0,-100.00,NE,42,2.0,4.0,100,0.00,,,0.00,0.000000,,2013-08-20 10:52:00,
2013-08-20 07:02:00,62.0,62.0,-100.00,NE,42,2.0,4.0,100,0.00,,,0.00,0.000000,,2013-08-20 11:02:00,
2013-08-20 07:42:00,62.0,62.0,-100.00,NE,39,2.0,3.0,100,0.00,,,0.00,15.000000,,2013-08-20 11:42:00,
2013-08-20 07:52:00,62.0,62.0,-100.00,NE,39,2.0,3.0,100,0.00,,,0.00,15.000000,,2013-08-20 11:52:00,
2013-08-20 08:01:00,62.0,62.0,-100.00,NE,39,2.0,3.0,100,0.00,,,0.00,15.000000,,2013-08-20 12:01:00,
2013-08-20 08:42:00,66.0,66.0,-100.00,North,5,3.0,5.0,100,0.00,,,0.00,150.000000,,2013-08-20 12:42:00,
2013-08-20 08:52:00,66.0,66.0,-100.00,North,5,3.0,5.0,100,0.00,,,0.00,150.000000,,2013-08-20 12:52:00,
2013-08-20 09:01:00,66.0,66.0,-100.00,North,5,3.0,5.0,100,0.00,,,0.00,150.000000,,2013-08-20 13:01:00,
2013-08-20 09:42:00,69.0,69.0,-100.00,NNW,333,3.0,6.0,100,0.00,,,0.00,326.000000,,2013-08-20 13:42:00,
2013-08-20 09:52:00,69.0,69.0,-100.00,NNW,333,3.0,6.0,100,0.00,,,0.00,326.000000,,2013-08-20 13:52:00,
2013-08-20 10:02:00,69.0,69.0,-100.00,NNW,333,3.0,6.0,100,0.00,,,0.00,326.000000,,2013-08-20 14:02:00,
2013-08-20 10:42:00,71.0,71.0,-100.00,North,3,3.0,6.0,100,0.00,,,0.00,493.000000,,2013-08-20 14:42:00,
2013-08-20 10:52:00,71.0,71.0,-100.00,North,3,3.0,6.0,100,0.00,,,0.00,493.000000,,2013-08-20 14:52:00,
2013-08-20 11:02:00,71.0,71.0,-100.00,North,3,3.0,6.0,100,0.00,,,0.00,493.000000,,2013-08-20 15:02:00,
2013-08-20 11:43:00,73.0,72.0,-100.00,NNE,21,4.0,8.0,96,0.00,,,0.00,651.000000,,2013-08-20 15:43:00,
2013-08-20 11:54:00,73.0,72.0,-100.00,NNE,21,4.0,8.0,96,0.00,,,0.00,651.000000,,2013-08-20 15:54:00,
2013-08-20 12:04:00,73.0,72.0,-100.00,NNE,21,4.0,8.0,96,0.00,,,0.00,651.000000,,2013-08-20 16:04:00,
2013-08-20 12:30:00,-999.0,-99.9,-100.00,NNW,329,4.0,8.0,69,0.00,,,0.00,757.000000,,2013-08-20 16:30:00,
2013-08-20 12:42:00,76.0,65.0,-100.00,NNW,329,4.0,8.0,69,0.00,,,0.00,757.000000,,2013-08-20 16:42:00,
2013-08-20 12:53:00,76.0,65.0,-100.00,NNW,329,4.0,8.0,69,0.00,,,0.00,757.000000,,2013-08-20 16:53:00,
2013-08-20 13:03:00,76.0,65.0,-100.00,NNW,329,4.0,8.0,69,0.00,,,0.00,757.000000,,2013-08-20 17:03:00,
2013-08-20 13:43:00,77.0,65.0,-100.00,North,1,4.0,10.0,66,0.00,,,0.00,809.000000,,2013-08-20 17:43:00,
2013-08-20 13:52:00,77.0,65.0,-100.00,North,1,4.0,10.0,66,0.00,,,0.00,809.000000,,2013-08-20 17:52:00,
2013-08-20 14:02:00,77.0,65.0,-100.00,North,1,4.0,10.0,66,0.00,,,0.00,809.000000,,2013-08-20 18:02:00,
2013-08-20 14:43:00,79.0,62.0,-100.00,SW,219,4.0,8.0,56,0.00,,,0.00,824.000000,,2013-08-20 18:43:00,
2013-08-20 14:52:00,79.0,62.0,-100.00,SW,219,4.0,8.0,56,0.00,,,0.00,824.000000,,2013-08-20 18:52:00,
2013-08-20 15:01:00,79.0,62.0,-100.00,SW,219,4.0,8.0,56,0.00,,,0.00,824.000000,,2013-08-20 19:01:00,
2013-08-20 15:42:00,81.0,63.0,-100.00,SSW,195,4.0,12.0,54,0.00,,,0.00,759.000000,,2013-08-20 19:42:00,
2013-08-20 15:53:00,81.0,63.0,-100.00,SSW,195,4.0,12.0,54,0.00,,,0.00,759.000000,,2013-08-20 19:53:00,
2013-08-20 16:03:00,81.0,63.0,-100.00,SSW,195,4.0,12.0,54,0.00,,,0.00,759.000000,,2013-08-20 20:03:00,
2013-08-20 16:42:00,81.0,62.0,-100.00,West,273,3.0,8.0,53,0.00,,,0.00,615.000000,,2013-08-20 20:42:00,
2013-08-20 16:52:00,81.0,62.0,-100.00,West,273,3.0,8.0,53,0.00,,,0.00,615.000000,,2013-08-20 20:52:00,
2013-08-20 17:03:00,81.0,62.0,-100.00,West,273,3.0,8.0,53,0.00,,,0.00,615.000000,,2013-08-20 21:03:00,
2013-08-20 18:42:00,79.0,62.0,-100.00,NE,52,2.0,7.0,57,0.00,,,0.00,297.000000,,2013-08-20 22:42:00,
2013-08-20 18:54:00,79.0,62.0,-100.00,NE,52,2.0,7.0,57,0.00,,,0.00,297.000000,,2013-08-20 22:54:00,
2013-08-20 19:03:00,79.0,62.0,-100.00,NE,52,2.0,7.0,57,0.00,,,0.00,297.000000,,2013-08-20 23:03:00,
2013-08-20 19:43:00,74.0,58.0,-100.00,NE,52,3.0,5.0,57,0.00,,,0.00,140.000000,,2013-08-20 23:43:00,
2013-08-20 19:53:00,74.0,58.0,-100.00,NE,52,3.0,5.0,57,0.00,,,0.00,140.000000,,2013-08-20 23:53:00,
2013-08-20 20:02:00,74.0,58.0,-100.00,NE,52,3.0,5.0,57,0.00,,,0.00,140.000000,,2013-08-21 00:02:00,
2013-08-20 20:42:00,65.0,58.0,-100.00,ESE,111,2.0,4.0,77,0.00,,,0.00,20.000000,,2013-08-21 00:42:00,
2013-08-20 20:52:00,65.0,58.0,-100.00,ESE,111,2.0,4.0,77,0.00,,,0.00,20.000000,,2013-08-21 00:52:00,
2013-08-20 21:02:00,65.0,58.0,-100.00,ESE,111,2.0,4.0,77,0.00,,,0.00,20.000000,,2013-08-21 01:02:00,
2013-08-20 21:42:00,64.0,58.0,-100.00,SSW,197,3.0,5.0,81,0.00,,,0.00,0.000000,,2013-08-21 01:42:00,
2013-08-20 21:52:00,64.0,58.0,-100.00,SSW,197,3.0,5.0,81,0.00,,,0.00,0.000000,,2013-08-21 01:52:00,
2013-08-20 22:02:00,64.0,58.0,-100.00,SSW,197,3.0,5.0,81,0.00,,,0.00,0.000000,,2013-08-21 02:02:00,
2013-08-20 22:42:00,63.0,57.0,-100.00,South,188,3.0,5.0,80,0.00,,,0.00,0.000000,,2013-08-21 02:42:00,
2013-08-20 22:52:00,63.0,57.0,-100.00,South,188,3.0,5.0,80,0.00,,,0.00,0.000000,,2013-08-21 02:52:00,
2013-08-20 23:02:00,63.0,57.0,-100.00,South,188,3.0,5.0,80,0.00,,,0.00,0.000000,,2013-08-21 03:02:00,
2013-08-20 23:44:00,63.0,56.0,-100.00,SSE,163,2.0,4.0,78,0.00,,,0.00,0.000000,,2013-08-21 03:44:00,
2013-08-20 23:55:00,63.0,56.0,-100.00,SSE,163,2.0,4.0,78,0.00,,,0.00,0.000000,,2013-08-21 03:55:00,